Location: Saint-Hippolyte
(43.6394°N, 4.7559°E)
Time: 15:11:30
(UTC+00:00)

Cosmos 2098 Rocket - Pass Details

Date: 24 October 2020
Orbit: 366 x 1184 km, 82.9° (Epoch: 24 November)

Event Time Altitude Azimuth Distance (km) Brightness Sun altitude
Rises 17:19:21 0° 344° (NNW) 2,456 6.2 -7.3°
Reaches altitude 10° 17:21:36 10° 336° (NNW) 1,495 5.2 -7.7°
Maximum altitude 17:24:31 35° 268° (W) 644 4.0 -8.2°
Drops below altitude 10° 17:27:11 10° 200° (SSW) 1,363 5.2 -8.7°
Sets 17:29:10 0° 191° (S) 2,198 6.2 -9.0°
